Location: Newark
(49.1022°N, 20.8503°E)
Time: 22:35:27
(UTC+00:00)

Envisat - Pass Details

Date: 05 October 2020
Orbit: 764 x 766 km, 98.1° (Epoch: 26 October)

Event Time Altitude Azimuth Distance (km) Brightness Sun altitude
Rises 03:55:24 0° 22° (NNE) 3,244 6.6 -8.5°
Reaches altitude 10° 03:57:59 10° 32° (NNE) 2,312 6.0 -8.1°
Maximum altitude 04:02:29 31° 94° (E) 1,330 5.2 -7.4°
Drops below altitude 10° 04:06:56 10° 156° (SSE) 2,296 5.8 -6.7°
Sets 04:09:29 0° 167° (SSE) 3,217 6.4 -6.2°
